Location: Unspecified
(35.6961°N, 0.0000°E)
Time: 01:09:38
(UTC+00:00)

Explorer 11/Cluster Stage 4 - Pass Details

Date: 26 May 2019
Orbit: 467 x 1260 km, 28.8° (Epoch: 14 June)

Event Time Altitude Azimuth Distance (km) Brightness Sun altitude
Rises 23:15:54 0° 205° (SSW) 4,030 - -32.3°
Reaches altitude 10° 23:20:42 10° 181° (S) 2,920 - -32.4°
Maximum altitude 23:23:45 13° 156° (SSE) 2,582 - -32.5°
Drops below altitude 10° 23:26:35 10° 130° (SE) 2,684 - -32.6°
Sets 23:30:36 0° 103° (ESE) 3,435 - -32.7°
